STARLINK-33828, 63493

Orbit data source: Space-Track

STARLINK-33828, 63493 is a payload satellite owned by SpaceX/Seattle (US) in LEO that was launched on Mon, 07 Apr 2025 UTC via an FALCON 9 launch vehicle from the Air Force Western Test Range (AFWTR). Payload-class satellites include a variety of spacecraft equipped with specific instruments for various scientific and technological missions. These include communications satellites like Starlink; space stations such as the ISS; scientific satellites like the Hubble; Earth observation satellites from companies like Planet Labs, Umbra, and HawkEye 360; GPS; miniature CubeSats for education and research; and military/defense satellites.

Loading next visibility...
Identifier
63493, 2025-071A
Orbit
LEO
Country
Flag of USUS
Related business
Manufacturer
SpaceX/Seattle
Mission
Operational Commercial Communications
Bus & Motor
STARLINK V2MO, Unknown motor
Mass
575 kg wet, ~530 kg dry
Launch date (UTC)
2025-04-07 (6 months ago)
Launch vehicle
FALCON 9
Launch site
Air Force Western Test Range (AFWTR)
Object type
Payload
Rocket body
Debris
Shape & HBR
Box + 2 Pan, 17.7 m
Radar Cross Section
36.964 m², Large (>1 m²)

Expand to show TLE details & history
Last TLE update: 11 hours ago

TLE from 11 hours ago
0 STARLINK-33828
1 63493U 25071A   25287.86829382 -.00022724  00000-0 -75686-3 0  9994
2 63493  53.1595  99.4151 0001514  84.1685 275.9489 15.30224245 30394
Epoch: 2025-10-14T20:50Z
TLE epoch observation values (Epoch: 2025-10-14T20:50:20.586Z)
Latitude
0.00006°
Longitude
123.17882°
Altitude
475.935 km
Speed
7.629 km/s
True Right ascension
06h 37m 39s
True Declination
0° 00' 00"
Sunlit
Object was in daylight at epoch
Visualization orbit readout
Latitude
Unknown
Longitude
Unknown
Altitude
Unknown
Speed
Unknown
Apparent Right ascension
Unknown
Apparent Declination
Unknown
Sunlit
N/A
Visualization observer readout
Local Sidereal Time
02:19:52
Azimuth
Unknown
Elevation
Unknown
Doppler factor
Unknown
Orbital elements
Apogee altitude
476.437 km
Perigee altitude
474.362 km
Semi-major axis
6,853.536 km
Eccentricity
0.00015
Inclination
53.1595°
RAAN
99.4151°
Arg. of periapsis
84.1685°
True anomaly
275.93164°
Mean anomaly
275.9489°
Eccentric anomaly
275.94027°
Mean motion
3.82535 °/min
Orbital period
94.11 mins
BSTAR
-0.00075686
Loading maneuver chart data...
Computing Atmospheric mass density...
Loading historical data...
Loading historical data...
Loading historical data...
Loading historical data...
Loading historical data...
Loading historical data...
Loading historical data...

Documentation

Showing up to 5 results
|